GLD879 SNJP-SWKT

Flight info

Callsign GLD879
Flight time 0h 36m
Altitude 4500
Route DCT 1757S04651W 1805S04733W DCT
Aircraft BE35/M-SDFGIRY/S

Departure

Time 2026-05-07 00:11
Airport João Pinheiro Airport (SNJP)

Arrival

Time 2026-05-07 00:48
Airport Catalão Airport (SWKT)
Time Latitude Longitude Altitude Speed Heading
2026-05-07 00:04 -17.78513 -46.11974 2950 ft 0 kts 131°
2026-05-07 00:07 -17.78536 -46.11968 2953 ft 8 kts 158°
2026-05-07 00:07 -17.78606 -46.11912 2960 ft 15 kts 166°
2026-05-07 00:08 -17.78694 -46.11973 2963 ft 18 kts 222°
2026-05-07 00:08 -17.78787 -46.12065 2971 ft 19 kts 223°
2026-05-07 00:08 -17.78884 -46.12158 2979 ft 19 kts 224°
2026-05-07 00:08 -17.78983 -46.12256 2987 ft 20 kts 223°
2026-05-07 00:09 -17.79083 -46.12357 2998 ft 20 kts 223°
2026-05-07 00:09 -17.79182 -46.12431 3006 ft 9 kts 201°
2026-05-07 00:09 -17.79177 -46.12449 3011 ft 7 kts 43°
2026-05-07 00:09 -17.79169 -46.12441 3007 ft 0 kts 43°
2026-05-07 00:10 -17.79139 -46.12412 3005 ft 35 kts 44°
2026-05-07 00:10 -17.78749 -46.12029 2974 ft 109 kts 43°
2026-05-07 00:10 -17.78155 -46.11418 3182 ft 126 kts 47°
2026-05-07 00:11 -17.77486 -46.10709 3432 ft 145 kts 49°
2026-05-07 00:11 -17.76532 -46.10171 3524 ft 170 kts
2026-05-07 00:11 -17.75395 -46.10550 3716 ft 181 kts 322°
2026-05-07 00:11 -17.74787 -46.11704 3916 ft 185 kts 277°
2026-05-07 00:12 -17.75072 -46.12965 4132 ft 180 kts 232°
2026-05-07 00:12 -17.75901 -46.13930 4364 ft 180 kts 223°
2026-05-07 00:12 -17.76816 -46.14918 4399 ft 193 kts 222°
2026-05-07 00:12 -17.77776 -46.15948 4416 ft 200 kts 222°
2026-05-07 00:13 -17.78769 -46.16998 4412 ft 204 kts 223°
2026-05-07 00:13 -17.79724 -46.18105 4399 ft 207 kts 230°
2026-05-07 00:13 -17.80430 -46.19401 4413 ft 209 kts 248°
2026-05-07 00:13 -17.80806 -46.20905 4414 ft 212 kts 258°
2026-05-07 00:14 -17.81089 -46.22423 4393 ft 209 kts 257°
2026-05-07 00:14 -17.81404 -46.23892 4403 ft 204 kts 256°
2026-05-07 00:14 -17.81733 -46.25339 4394 ft 200 kts 255°
2026-05-07 00:14 -17.82050 -46.26734 4405 ft 199 kts 257°
2026-05-07 00:15 -17.82371 -46.28166 4400 ft 199 kts 256°
2026-05-07 00:15 -17.82687 -46.29591 4390 ft 199 kts 255°
2026-05-07 00:15 -17.83002 -46.30992 4397 ft 198 kts 256°
2026-05-07 00:15 -17.83317 -46.32398 4396 ft 197 kts 256°
2026-05-07 00:16 -17.83630 -46.33799 4391 ft 197 kts 256°
2026-05-07 00:16 -17.83938 -46.35196 4402 ft 194 kts 256°
2026-05-07 00:16 -17.84246 -46.36578 4400 ft 195 kts 255°
2026-05-07 00:16 -17.84558 -46.37959 4396 ft 194 kts 256°
2026-05-07 00:17 -17.84867 -46.39332 4398 ft 196 kts 256°
2026-05-07 00:17 -17.85179 -46.40726 4393 ft 196 kts 256°
2026-05-07 00:17 -17.85486 -46.42110 4401 ft 195 kts 256°
2026-05-07 00:17 -17.85795 -46.43503 4390 ft 194 kts 256°
2026-05-07 00:18 -17.86104 -46.44887 4401 ft 196 kts 256°
2026-05-07 00:18 -17.86412 -46.46282 4398 ft 192 kts 256°
2026-05-07 00:18 -17.86718 -46.47645 4393 ft 193 kts 256°
2026-05-07 00:18 -17.87029 -46.49026 4400 ft 194 kts 256°
2026-05-07 00:19 -17.87333 -46.50399 4393 ft 193 kts 256°
2026-05-07 00:19 -17.87635 -46.51765 4398 ft 194 kts 256°
2026-05-07 00:19 -17.87940 -46.53150 4392 ft 193 kts 256°
2026-05-07 00:19 -17.88250 -46.54529 4396 ft 193 kts 256°
2026-05-07 00:20 -17.88558 -46.55910 4396 ft 196 kts 256°
2026-05-07 00:20 -17.88867 -46.57300 4390 ft 194 kts 256°
2026-05-07 00:20 -17.89172 -46.58665 4398 ft 194 kts 256°
2026-05-07 00:20 -17.89479 -46.60051 4396 ft 193 kts 256°
2026-05-07 00:21 -17.89782 -46.61425 4397 ft 193 kts 256°
2026-05-07 00:21 -17.90088 -46.62807 4398 ft 194 kts 256°
2026-05-07 00:21 -17.90395 -46.64186 4401 ft 196 kts 256°
2026-05-07 00:21 -17.90702 -46.65569 4402 ft 195 kts 256°
2026-05-07 00:22 -17.91010 -46.66967 4399 ft 197 kts 256°
2026-05-07 00:22 -17.91322 -46.68362 4406 ft 195 kts 256°
2026-05-07 00:22 -17.91633 -46.69751 4399 ft 194 kts 256°
2026-05-07 00:22 -17.91930 -46.71122 4398 ft 192 kts 257°
2026-05-07 00:23 -17.92230 -46.72481 4405 ft 193 kts 256°
2026-05-07 00:23 -17.92540 -46.73861 4401 ft 195 kts 256°
2026-05-07 00:23 -17.92850 -46.75251 4402 ft 194 kts 256°
2026-05-07 00:23 -17.93149 -46.76631 4402 ft 192 kts 256°
2026-05-07 00:24 -17.93459 -46.78017 4404 ft 195 kts 256°
2026-05-07 00:24 -17.93764 -46.79396 4391 ft 195 kts 256°
2026-05-07 00:24 -17.94068 -46.80780 4405 ft 193 kts 256°
2026-05-07 00:24 -17.94371 -46.82158 4409 ft 196 kts 257°
2026-05-07 00:25 -17.94680 -46.83559 4405 ft 198 kts 256°
2026-05-07 00:25 -17.94994 -46.84966 4414 ft 195 kts 256°
2026-05-07 00:25 -17.95272 -46.86363 4402 ft 195 kts 259°
2026-05-07 00:25 -17.95526 -46.87748 4405 ft 195 kts 259°
2026-05-07 00:26 -17.95794 -46.89145 4403 ft 196 kts 258°
2026-05-07 00:26 -17.96065 -46.90545 4407 ft 194 kts 258°
2026-05-07 00:26 -17.96336 -46.91948 4406 ft 198 kts 258°
2026-05-07 00:26 -17.96612 -46.93377 4402 ft 195 kts 258°
2026-05-07 00:27 -17.96875 -46.94751 4407 ft 195 kts 259°
2026-05-07 00:27 -17.97138 -46.96148 4404 ft 194 kts 258°
2026-05-07 00:27 -17.97408 -46.97554 4402 ft 195 kts 258°
2026-05-07 00:27 -17.97674 -46.98922 4404 ft 193 kts 258°
2026-05-07 00:28 -17.97942 -47.00318 4402 ft 193 kts 258°
2026-05-07 00:28 -17.98201 -47.01690 4411 ft 194 kts 258°
2026-05-07 00:28 -17.98473 -47.03099 4406 ft 194 kts 258°
2026-05-07 00:28 -17.98737 -47.04466 4411 ft 191 kts 258°
2026-05-07 00:29 -17.98996 -47.05833 4405 ft 189 kts 258°
2026-05-07 00:29 -17.99256 -47.07196 4413 ft 189 kts 258°
2026-05-07 00:30 -18.00054 -47.11363 4407 ft 195 kts 259°
2026-05-07 00:30 -18.00317 -47.12761 4412 ft 195 kts 259°
2026-05-07 00:30 -18.00585 -47.14157 4410 ft 197 kts 259°
2026-05-07 00:30 -18.00856 -47.15553 4415 ft 195 kts 258°
2026-05-07 00:31 -18.01119 -47.16947 4415 ft 193 kts 259°
2026-05-07 00:31 -18.01380 -47.18321 4415 ft 192 kts 258°
2026-05-07 00:31 -18.01639 -47.19684 4406 ft 190 kts 259°
2026-05-07 00:31 -18.01812 -47.20588 4407 ft 188 kts 259°
2026-05-07 00:32 -18.02071 -47.21951 4405 ft 189 kts 258°
2026-05-07 00:32 -18.02329 -47.23297 4405 ft 190 kts 258°
2026-05-07 00:32 -18.02586 -47.24657 4409 ft 189 kts 258°
2026-05-07 00:32 -18.02848 -47.26028 4404 ft 189 kts 259°
2026-05-07 00:33 -18.03104 -47.27377 4405 ft 189 kts 259°
2026-05-07 00:33 -18.03362 -47.28742 4412 ft 191 kts 258°
2026-05-07 00:33 -18.03624 -47.30109 4414 ft 193 kts 259°
2026-05-07 00:33 -18.03889 -47.31487 4415 ft 193 kts 259°
2026-05-07 00:34 -18.04148 -47.32879 4413 ft 193 kts 259°
2026-05-07 00:34 -18.04410 -47.34259 4416 ft 194 kts 259°
2026-05-07 00:34 -18.04677 -47.35661 4420 ft 194 kts 259°
2026-05-07 00:34 -18.04938 -47.37043 4414 ft 195 kts 259°
2026-05-07 00:35 -18.05202 -47.38437 4417 ft 195 kts 259°
2026-05-07 00:35 -18.05469 -47.39833 4408 ft 193 kts 259°
2026-05-07 00:35 -18.05727 -47.41210 4417 ft 194 kts 259°
2026-05-07 00:35 -18.05993 -47.42613 4412 ft 194 kts 259°
2026-05-07 00:36 -18.06254 -47.44001 4415 ft 194 kts 259°
2026-05-07 00:36 -18.06518 -47.45391 4406 ft 193 kts 259°
2026-05-07 00:36 -18.06778 -47.46754 4420 ft 193 kts 258°
2026-05-07 00:36 -18.07047 -47.48153 4418 ft 196 kts 259°
2026-05-07 00:37 -18.07304 -47.49554 4409 ft 194 kts 259°
2026-05-07 00:37 -18.07566 -47.50943 4414 ft 193 kts 259°
2026-05-07 00:37 -18.07831 -47.52335 4418 ft 194 kts 259°
2026-05-07 00:37 -18.08087 -47.53714 4420 ft 194 kts 259°
2026-05-07 00:38 -18.08371 -47.55103 4412 ft 195 kts 255°
2026-05-07 00:38 -18.08844 -47.56445 4418 ft 195 kts 246°
2026-05-07 00:38 -18.09384 -47.57756 4414 ft 194 kts 246°
2026-05-07 00:38 -18.09894 -47.59061 4406 ft 192 kts 248°
2026-05-07 00:39 -18.10388 -47.60359 4407 ft 191 kts 248°
2026-05-07 00:39 -18.10880 -47.61648 4415 ft 193 kts 247°
2026-05-07 00:39 -18.11392 -47.62979 4417 ft 196 kts 248°
2026-05-07 00:39 -18.11898 -47.64302 4410 ft 198 kts 248°
2026-05-07 00:40 -18.12413 -47.65640 4408 ft 196 kts 248°
2026-05-07 00:40 -18.12930 -47.66993 4417 ft 197 kts 248°
2026-05-07 00:40 -18.13439 -47.68323 4414 ft 197 kts 248°
2026-05-07 00:40 -18.13949 -47.69659 4412 ft 197 kts 247°
2026-05-07 00:41 -18.14465 -47.71002 4416 ft 198 kts 247°
2026-05-07 00:41 -18.14978 -47.72351 4411 ft 198 kts 248°
2026-05-07 00:41 -18.15490 -47.73694 4412 ft 198 kts 247°
2026-05-07 00:41 -18.16003 -47.75031 4402 ft 195 kts 247°
2026-05-07 00:42 -18.16504 -47.76339 4413 ft 196 kts 248°
2026-05-07 00:42 -18.17010 -47.77669 4412 ft 196 kts 248°
2026-05-07 00:42 -18.17519 -47.79001 4414 ft 196 kts 248°
2026-05-07 00:42 -18.18038 -47.80356 4250 ft 203 kts 248°
2026-05-07 00:43 -18.18572 -47.81754 4065 ft 204 kts 248°
2026-05-07 00:43 -18.19085 -47.83108 3871 ft 199 kts 248°
2026-05-07 00:43 -18.19593 -47.84431 3681 ft 192 kts 248°
2026-05-07 00:43 -18.20077 -47.85704 3605 ft 180 kts 248°
2026-05-07 00:44 -18.20531 -47.86887 3588 ft 168 kts 248°
2026-05-07 00:44 -18.20949 -47.87989 3600 ft 160 kts 248°
2026-05-07 00:44 -18.21360 -47.89067 3598 ft 155 kts 248°
2026-05-07 00:44 -18.21756 -47.90110 3598 ft 151 kts 251°
2026-05-07 00:45 -18.21702 -47.91126 3587 ft 134 kts 307°
2026-05-07 00:45 -18.21040 -47.91745 3591 ft 127 kts 328°
2026-05-07 00:45 -18.20336 -47.92313 3596 ft 125 kts 327°
2026-05-07 00:45 -18.19644 -47.92871 3598 ft 125 kts 328°
2026-05-07 00:46 -18.18970 -47.93411 3588 ft 121 kts 330°
2026-05-07 00:46 -18.18221 -47.93574 3544 ft 109 kts 28°
2026-05-07 00:46 -18.17870 -47.92959 3526 ft 106 kts 99°
2026-05-07 00:46 -18.18287 -47.92287 3413 ft 115 kts 126°
2026-05-07 00:47 -18.18837 -47.91665 3279 ft 121 kts 132°
2026-05-07 00:47 -18.19499 -47.91109 3108 ft 121 kts 145°
2026-05-07 00:47 -18.20214 -47.90723 2891 ft 112 kts 153°
2026-05-07 00:47 -18.20929 -47.90352 2700 ft 113 kts 154°
2026-05-07 00:48 -18.21503 -47.90061 2637 ft 62 kts 154°
2026-05-07 00:48 -18.21724 -47.89944 2632 ft 29 kts 152°
2026-05-07 00:48 -18.21894 -47.89856 2629 ft 18 kts 154°
2026-05-07 00:48 -18.21969 -47.89872 2630 ft 11 kts 246°
2026-05-07 00:49 -18.22006 -47.89951 2630 ft 13 kts 243°
2026-05-07 00:49 -18.22009 -47.90032 2630 ft 10 kts 250°
2026-05-07 00:49 -18.22012 -47.90041 2630 ft 0 kts 250°